CES5406 ZUUU-ZSSS

Flight info

Callsign CES5406
Flight time 1h 52m
Altitude 41100
Route UBRAB6N UBRAB B213 WHA R343 PK
Aircraft A359/H-SDE2E3GHIJ3J4J5LM1ORWXY/LB1D1

Departure

Time 2026-05-07 20:51
Airport Chengdu Shuangliu International Airport (ZUUU)

Arrival

Time 2026-05-07 22:44
Airport Shanghai Hongqiao International Airport (ZSSS)
Time Latitude Longitude Altitude Speed Heading
2026-05-07 20:48 30.56371 103.94331 1654 ft 9 kts 202°
2026-05-07 20:48 30.56291 103.94291 1654 ft 3 kts 214°
2026-05-07 20:48 30.56271 103.94251 1654 ft 12 kts 258°
2026-05-07 20:48 30.56304 103.94139 1654 ft 0 kts 295°
2026-05-07 20:49 30.56310 103.94124 1654 ft 3 kts 295°
2026-05-07 20:49 30.56325 103.94088 1654 ft 6 kts 295°
2026-05-07 20:49 30.56347 103.94032 1653 ft 7 kts 296°
2026-05-07 20:49 30.56370 103.94022 1654 ft 5 kts 354°
2026-05-07 20:50 30.56419 103.94037 1671 ft 10 kts 22°
2026-05-07 20:50 30.56443 103.94049 1665 ft 0 kts 23°
2026-05-07 20:50 30.56508 103.94080 1670 ft 38 kts 22°
2026-05-07 20:50 30.56988 103.94301 1652 ft 108 kts 21°
2026-05-07 20:51 30.57876 103.94711 1672 ft 164 kts 21°
2026-05-07 20:51 30.58496 103.94995 2048 ft 160 kts 21°
2026-05-07 20:51 30.58783 103.95129 2296 ft 157 kts 22°
2026-05-07 20:51 30.58813 103.95142 2325 ft 157 kts 22°
2026-05-07 20:52 30.59832 103.95621 2990 ft 166 kts 22°
2026-05-07 20:52 30.60988 103.96164 3286 ft 195 kts 22°
2026-05-07 20:52 30.62345 103.96797 3557 ft 225 kts 22°
2026-05-07 20:52 30.63883 103.97512 3917 ft 250 kts 22°
2026-05-07 20:53 30.65533 103.98281 4609 ft 259 kts 22°
2026-05-07 20:53 30.67156 103.99205 5433 ft 262 kts 37°
2026-05-07 20:53 30.68343 104.00752 6402 ft 260 kts 56°
2026-05-07 20:53 30.69326 104.02524 7348 ft 262 kts 57°
2026-05-07 20:54 30.70306 104.04344 8201 ft 269 kts 57°
2026-05-07 20:54 30.71315 104.06205 9087 ft 275 kts 57°
2026-05-07 20:54 30.72349 104.08101 10004 ft 280 kts 56°
2026-05-07 20:54 30.73426 104.10071 10589 ft 299 kts 56°
2026-05-07 20:55 30.74560 104.12212 10921 ft 323 kts 60°
2026-05-07 20:55 30.75382 104.14733 11261 ft 345 kts 78°
2026-05-07 20:55 30.75696 104.17551 11857 ft 357 kts 85°
2026-05-07 20:55 30.75898 104.20464 12579 ft 364 kts 86°
2026-05-07 20:56 30.76099 104.23427 13318 ft 371 kts 86°
2026-05-07 20:56 30.76309 104.26405 14037 ft 378 kts 86°
2026-05-07 20:56 30.76529 104.29482 14638 ft 386 kts 86°
2026-05-07 20:56 30.76756 104.32624 15205 ft 394 kts 86°
2026-05-07 20:57 30.76989 104.35831 15756 ft 403 kts 86°
2026-05-07 20:57 30.77228 104.39109 16314 ft 410 kts 86°
2026-05-07 20:57 30.77470 104.42446 16884 ft 418 kts 86°
2026-05-07 20:57 30.77717 104.45847 17440 ft 426 kts 86°
2026-05-07 20:58 30.77966 104.49301 17962 ft 433 kts 85°
2026-05-07 20:58 30.78219 104.52821 18482 ft 440 kts 85°
2026-05-07 20:58 30.78475 104.56385 19008 ft 444 kts 86°
2026-05-07 20:58 30.78731 104.59980 19552 ft 448 kts 86°
2026-05-07 20:59 30.78989 104.63605 20137 ft 450 kts 86°
2026-05-07 20:59 30.79247 104.67243 20730 ft 453 kts 86°
2026-05-07 20:59 30.79505 104.70912 21312 ft 456 kts 86°
2026-05-07 20:59 30.79765 104.74610 21870 ft 460 kts 86°
2026-05-07 21:00 30.80025 104.78333 22424 ft 463 kts 86°
2026-05-07 21:00 30.80287 104.82087 22970 ft 467 kts 86°
2026-05-07 21:00 30.80549 104.85864 23512 ft 470 kts 86°
2026-05-07 21:00 30.80811 104.89657 23999 ft 473 kts 86°
2026-05-07 21:01 30.81075 104.93502 24392 ft 478 kts 86°
2026-05-07 21:01 30.81342 104.97388 24724 ft 486 kts 86°
2026-05-07 21:01 30.81607 105.01280 25131 ft 491 kts 86°
2026-05-07 21:01 30.81881 105.05259 25579 ft 495 kts 86°
2026-05-07 21:02 30.82152 105.09273 26028 ft 500 kts 86°
2026-05-07 21:02 30.82423 105.13331 26472 ft 504 kts 86°
2026-05-07 21:02 30.82694 105.17421 26914 ft 509 kts 86°
2026-05-07 21:02 30.82968 105.21554 27368 ft 514 kts 86°
2026-05-07 21:03 30.83245 105.25728 27806 ft 518 kts 86°
2026-05-07 21:03 30.83519 105.29878 28222 ft 523 kts 86°
2026-05-07 21:03 30.83797 105.34127 28608 ft 529 kts 86°
2026-05-07 21:03 30.84078 105.38416 29048 ft 533 kts 86°
2026-05-07 21:04 30.84525 105.42709 29460 ft 537 kts 79°
2026-05-07 21:04 30.85293 105.46990 29876 ft 542 kts 77°
2026-05-07 21:04 30.86172 105.51262 30336 ft 544 kts 76°
2026-05-07 21:04 30.87102 105.55530 30876 ft 543 kts 75°
2026-05-07 21:05 30.88049 105.59804 31237 ft 547 kts 75°
2026-05-07 21:05 30.88999 105.64114 31536 ft 551 kts 75°
2026-05-07 21:05 30.89930 105.68396 31777 ft 556 kts 75°
2026-05-07 21:05 30.90886 105.72846 32067 ft 560 kts 75°
2026-05-07 21:06 30.91811 105.77193 32384 ft 562 kts 75°
2026-05-07 21:06 30.92752 105.81636 32702 ft 565 kts 75°
2026-05-07 21:06 30.93691 105.86093 32986 ft 568 kts 76°
2026-05-07 21:06 30.94633 105.90581 33299 ft 571 kts 76°
2026-05-07 21:07 30.95533 105.95107 33545 ft 574 kts 79°
2026-05-07 21:07 30.95956 105.99738 33925 ft 573 kts 90°
2026-05-07 21:07 30.95728 106.04373 34197 ft 573 kts 101°
2026-05-07 21:07 30.94936 106.08861 34483 ft 571 kts 106°
2026-05-07 21:08 30.93963 106.13349 34799 ft 570 kts 108°
2026-05-07 21:08 30.92910 106.17800 35115 ft 570 kts 109°
2026-05-07 21:08 30.91827 106.22238 35434 ft 569 kts 110°
2026-05-07 21:08 30.90735 106.26668 35701 ft 570 kts 110°
2026-05-07 21:09 30.89649 106.31082 35983 ft 571 kts 110°
2026-05-07 21:09 30.88479 106.35503 36256 ft 569 kts 114°
2026-05-07 21:09 30.87121 106.39831 36441 ft 570 kts 116°
2026-05-07 21:09 30.85585 106.44024 37472 ft 568 kts 115°
2026-05-07 21:10 30.84049 106.48183 37253 ft 554 kts 118°
2026-05-07 21:10 30.82496 106.52293 37421 ft 557 kts 119°
2026-05-07 21:10 30.80884 106.56414 37447 ft 562 kts 120°
2026-05-07 21:11 30.77527 106.64695 37722 ft 568 kts 121°
2026-05-07 21:11 30.75820 106.68835 37982 ft 568 kts 121°
2026-05-07 21:11 30.72379 106.77135 38374 ft 571 kts 121°
2026-05-07 21:12 30.70653 106.81297 38606 ft 571 kts 121°
2026-05-07 21:12 30.68931 106.85450 38875 ft 571 kts 121°
2026-05-07 21:12 30.67228 106.89559 39041 ft 571 kts 121°
2026-05-07 21:12 30.65503 106.93720 39221 ft 571 kts 121°
2026-05-07 21:13 30.62057 107.02021 39270 ft 569 kts 121°
2026-05-07 21:13 30.58618 107.10308 39266 ft 570 kts 121°
2026-05-07 21:14 30.55158 107.18582 39270 ft 576 kts 121°
2026-05-07 21:14 30.51627 107.26998 39271 ft 583 kts 121°
2026-05-07 21:15 30.48063 107.35489 39268 ft 586 kts 121°
2026-05-07 21:15 30.44498 107.43993 39266 ft 586 kts 121°
2026-05-07 21:16 30.40944 107.52438 39265 ft 587 kts 121°
2026-05-07 21:16 30.37353 107.60943 39275 ft 586 kts 121°
2026-05-07 21:17 30.33764 107.69442 39263 ft 586 kts 121°
2026-05-07 21:17 30.30189 107.77864 39272 ft 587 kts 121°
2026-05-07 21:18 30.26581 107.86346 39261 ft 587 kts 121°
2026-05-07 21:18 30.22966 107.94829 39267 ft 587 kts 121°
2026-05-07 21:19 30.19351 108.03298 39273 ft 587 kts 121°
2026-05-07 21:19 30.16339 108.10341 39273 ft 587 kts 121°
2026-05-07 21:20 30.12123 108.20176 39289 ft 586 kts 121°
2026-05-07 21:20 30.08752 108.28773 39292 ft 592 kts 110°
2026-05-07 21:21 30.07836 108.33417 39285 ft 595 kts 98°
2026-05-07 21:21 30.07700 108.38136 39294 ft 596 kts 85°
2026-05-07 21:21 30.09347 108.47480 39296 ft 593 kts 72°
2026-05-07 21:22 30.11648 108.56653 39294 ft 593 kts 70°
2026-05-07 21:22 30.14218 108.65623 39305 ft 591 kts 68°
2026-05-07 21:23 30.16971 108.74572 39313 ft 591 kts 67°
2026-05-07 21:23 30.19666 108.83565 39308 ft 593 kts 68°
2026-05-07 21:24 30.22301 108.92623 39309 ft 594 kts 68°
2026-05-07 21:24 30.24345 109.00222 39291 ft 595 kts 71°
2026-05-07 21:25 30.26894 109.10974 39310 ft 595 kts 72°
2026-05-07 21:25 30.28709 109.18661 39307 ft 595 kts 72°
2026-05-07 21:26 30.30941 109.27896 39333 ft 596 kts 71°
2026-05-07 21:26 30.33197 109.37123 39456 ft 595 kts 71°
2026-05-07 21:27 30.35455 109.46364 39443 ft 597 kts 71°
2026-05-07 21:27 30.37690 109.55617 39311 ft 595 kts 71°
2026-05-07 21:28 30.39523 109.64944 39317 ft 598 kts 78°
2026-05-07 21:28 30.40962 109.74458 39310 ft 599 kts 78°
2026-05-07 21:29 30.42340 109.83919 39307 ft 598 kts 79°
2026-05-07 21:29 30.43720 109.93438 39309 ft 598 kts 78°
2026-05-07 21:30 30.45098 110.02943 39315 ft 597 kts 78°
2026-05-07 21:30 30.46471 110.12447 39308 ft 597 kts 78°
2026-05-07 21:31 30.47829 110.21888 39323 ft 598 kts 79°
2026-05-07 21:31 30.49195 110.31402 39318 ft 598 kts 78°
2026-05-07 21:32 30.50548 110.40929 39317 ft 599 kts 79°
2026-05-07 21:32 30.51890 110.50431 39315 ft 598 kts 79°
2026-05-07 21:33 30.53227 110.59954 39314 ft 598 kts 79°
2026-05-07 21:33 30.54563 110.69508 39309 ft 598 kts 79°
2026-05-07 21:34 30.55884 110.78986 39302 ft 597 kts 79°
2026-05-07 21:34 30.57202 110.88525 39297 ft 598 kts 79°
2026-05-07 21:35 30.58517 110.98080 39300 ft 598 kts 79°
2026-05-07 21:35 30.59826 111.07624 39295 ft 598 kts 79°
2026-05-07 21:36 30.61135 111.17124 39281 ft 599 kts 79°
2026-05-07 21:36 30.62416 111.26665 39288 ft 598 kts 79°
2026-05-07 21:37 30.63697 111.36234 39282 ft 598 kts 79°
2026-05-07 21:37 30.64953 111.45734 39271 ft 599 kts 80°
2026-05-07 21:38 30.65640 111.55391 39270 ft 600 kts 85°
2026-05-07 21:38 30.66156 111.65068 39273 ft 600 kts 85°
2026-05-07 21:39 30.66634 111.74756 39272 ft 600 kts 85°
2026-05-07 21:39 30.67110 111.84392 39269 ft 599 kts 85°
2026-05-07 21:40 30.67591 111.94074 39266 ft 599 kts 85°
2026-05-07 21:40 30.68135 112.03727 39293 ft 598 kts 84°
2026-05-07 21:41 30.68821 112.13294 39253 ft 597 kts 83°
2026-05-07 21:41 30.69512 112.22901 39262 ft 596 kts 83°
2026-05-07 21:42 30.70170 112.32520 39262 ft 596 kts 84°
2026-05-07 21:42 30.70804 112.42126 39260 ft 596 kts 84°
2026-05-07 21:43 30.71427 112.51695 39259 ft 595 kts 84°
2026-05-07 21:43 30.72047 112.61286 39257 ft 595 kts 84°
2026-05-07 21:44 30.72661 112.70893 39256 ft 595 kts 84°
2026-05-07 21:44 30.73265 112.80443 39249 ft 595 kts 84°
2026-05-07 21:45 30.73864 112.90040 39257 ft 595 kts 84°
2026-05-07 21:45 30.74457 112.99656 39249 ft 595 kts 84°
2026-05-07 21:46 30.75039 113.09201 39280 ft 595 kts 84°
2026-05-07 21:46 30.75582 113.18810 39253 ft 595 kts 85°
2026-05-07 21:47 30.75827 113.28385 39250 ft 595 kts 87°
2026-05-07 21:47 30.75990 113.38010 39239 ft 595 kts 87°
2026-05-07 21:48 30.76190 113.47638 39246 ft 595 kts 87°
2026-05-07 21:48 30.76418 113.57253 39246 ft 595 kts 87°
2026-05-07 21:49 30.76647 113.66867 39245 ft 595 kts 87°
2026-05-07 21:49 30.76866 113.76442 39227 ft 594 kts 87°
2026-05-07 21:50 30.77076 113.86076 39241 ft 594 kts 87°
2026-05-07 21:50 30.77277 113.95644 39230 ft 594 kts 87°
2026-05-07 21:51 30.77490 114.05266 39227 ft 594 kts 86°
2026-05-07 21:51 30.77880 114.14871 39226 ft 593 kts 85°
2026-05-07 21:52 30.79504 114.24113 39250 ft 584 kts 67°
2026-05-07 21:52 30.82282 114.32986 39228 ft 583 kts 64°
2026-05-07 21:53 30.85177 114.41825 39245 ft 583 kts 64°
2026-05-07 21:53 30.88030 114.50598 39229 ft 583 kts 64°
2026-05-07 21:54 30.90906 114.59436 39227 ft 583 kts 64°
2026-05-07 21:54 30.93773 114.68274 39226 ft 583 kts 64°
2026-05-07 21:55 30.96628 114.77108 39238 ft 582 kts 65°
2026-05-07 21:55 30.99476 114.85952 39232 ft 583 kts 65°
2026-05-07 21:56 31.02318 114.94801 39232 ft 582 kts 65°
2026-05-07 21:56 31.05155 115.03652 39239 ft 582 kts 65°
2026-05-07 21:57 31.07968 115.12469 39237 ft 582 kts 65°
2026-05-07 21:57 31.10788 115.21326 39270 ft 582 kts 65°
2026-05-07 21:58 31.13596 115.30191 39245 ft 582 kts 65°
2026-05-07 21:58 31.16447 115.39047 39245 ft 582 kts 64°
2026-05-07 21:59 31.19301 115.47826 39247 ft 582 kts 64°
2026-05-07 21:59 31.22166 115.56677 39254 ft 582 kts 64°
2026-05-07 22:00 31.25020 115.65549 39266 ft 582 kts 65°
2026-05-07 22:00 31.27862 115.74417 39268 ft 581 kts 65°
2026-05-07 22:01 31.30691 115.83258 39280 ft 581 kts 65°
2026-05-07 22:01 31.33506 115.92068 39281 ft 582 kts 64°
2026-05-07 22:02 31.36389 116.00915 39282 ft 581 kts 64°
2026-05-07 22:02 31.39279 116.09752 39283 ft 581 kts 64°
2026-05-07 22:03 31.42157 116.18602 39291 ft 582 kts 64°
2026-05-07 22:03 31.45028 116.27473 39284 ft 582 kts 64°
2026-05-07 22:04 31.47895 116.36365 39293 ft 582 kts 64°
2026-05-07 22:04 31.50738 116.45207 39292 ft 583 kts 64°
2026-05-07 22:05 31.53594 116.54110 39291 ft 583 kts 65°
2026-05-07 22:05 31.56447 116.63028 39301 ft 583 kts 65°
2026-05-07 22:06 31.59265 116.71860 39293 ft 583 kts 65°
2026-05-07 22:06 31.62107 116.80790 39291 ft 583 kts 65°
2026-05-07 22:07 31.64936 116.89709 39282 ft 583 kts 65°
2026-05-07 22:07 31.67762 116.98640 39292 ft 583 kts 65°
2026-05-07 22:08 31.70542 117.07503 39318 ft 583 kts 65°
2026-05-07 22:08 31.73305 117.16469 39293 ft 583 kts 65°
2026-05-07 22:09 31.76015 117.25458 39281 ft 585 kts 69°
2026-05-07 22:09 31.77089 117.34996 39291 ft 593 kts 90°
2026-05-07 22:10 31.76653 117.44632 39292 ft 594 kts 94°
2026-05-07 22:10 31.75925 117.54326 39286 ft 594 kts 95°
2026-05-07 22:11 31.75179 117.63998 39290 ft 594 kts 94°
2026-05-07 22:11 31.74471 117.73690 39292 ft 594 kts 94°
2026-05-07 22:12 31.73786 117.83299 39291 ft 594 kts 94°
2026-05-07 22:12 31.73090 117.92993 39293 ft 594 kts 94°
2026-05-07 22:13 31.72384 118.02664 39293 ft 593 kts 94°
2026-05-07 22:13 31.71676 118.12269 39290 ft 594 kts 94°
2026-05-07 22:14 31.70997 118.21943 39292 ft 594 kts 94°
2026-05-07 22:14 31.70442 118.29993 39294 ft 594 kts 94°
2026-05-07 22:15 31.69764 118.39690 39292 ft 594 kts 94°
2026-05-07 22:15 31.68961 118.50941 39297 ft 594 kts 94°
2026-05-07 22:16 31.68379 118.58991 39301 ft 594 kts 94°
2026-05-07 22:16 31.67672 118.68667 39199 ft 593 kts 94°
2026-05-07 22:17 31.66958 118.78345 38959 ft 594 kts 94°
2026-05-07 22:17 31.66603 118.83116 38764 ft 594 kts 94°
2026-05-07 22:17 31.66242 118.87951 38524 ft 593 kts 94°
2026-05-07 22:18 31.65879 118.92782 38322 ft 593 kts 94°
2026-05-07 22:18 31.65156 119.02390 37496 ft 586 kts 94°
2026-05-07 22:18 31.64807 119.07153 36584 ft 586 kts 94°
2026-05-07 22:19 31.64526 119.11913 35720 ft 581 kts 93°
2026-05-07 22:19 31.64298 119.16628 34812 ft 575 kts 92°
2026-05-07 22:19 31.64108 119.21298 33885 ft 570 kts 92°
2026-05-07 22:19 31.63932 119.25912 32988 ft 563 kts 92°
2026-05-07 22:20 31.63754 119.30478 32116 ft 556 kts 93°
2026-05-07 22:20 31.63569 119.34939 31274 ft 551 kts 93°
2026-05-07 22:20 31.63374 119.39416 30394 ft 546 kts 94°
2026-05-07 22:20 31.63176 119.43836 29744 ft 535 kts 94°
2026-05-07 22:21 31.63108 119.45305 29541 ft 531 kts 94°
2026-05-07 22:21 31.62763 119.52454 28534 ft 526 kts 94°
2026-05-07 22:21 31.62553 119.56739 27918 ft 523 kts 94°
2026-05-07 22:21 31.62344 119.60989 27322 ft 520 kts 94°
2026-05-07 22:22 31.62139 119.65158 26730 ft 516 kts 94°
2026-05-07 22:22 31.61934 119.69349 26148 ft 513 kts 94°
2026-05-07 22:22 31.61741 119.73527 25555 ft 510 kts 94°
2026-05-07 22:22 31.61553 119.77684 24962 ft 507 kts 94°
2026-05-07 22:23 31.61365 119.81805 24376 ft 504 kts 94°
2026-05-07 22:23 31.61175 119.85912 23779 ft 502 kts 94°
2026-05-07 22:23 31.60984 119.89991 23114 ft 499 kts 94°
2026-05-07 22:23 31.60796 119.93990 22519 ft 495 kts 94°
2026-05-07 22:24 31.60606 119.98000 21922 ft 490 kts 94°
2026-05-07 22:24 31.60417 120.01974 21326 ft 486 kts 94°
2026-05-07 22:24 31.60227 120.05920 20728 ft 482 kts 94°
2026-05-07 22:24 31.60038 120.09831 20129 ft 477 kts 94°
2026-05-07 22:25 31.59851 120.13704 19531 ft 472 kts 95°
2026-05-07 22:25 31.59664 120.17528 18922 ft 468 kts 95°
2026-05-07 22:25 31.59477 120.21323 18300 ft 463 kts 95°
2026-05-07 22:25 31.59290 120.25079 17659 ft 458 kts 94°
2026-05-07 22:26 31.59106 120.28743 17064 ft 452 kts 94°
2026-05-07 22:26 31.58727 120.32375 16475 ft 444 kts 104°
2026-05-07 22:26 31.57830 120.35802 16110 ft 437 kts 110°
2026-05-07 22:26 31.56825 120.39168 15719 ft 436 kts 110°
2026-05-07 22:27 31.55814 120.42521 15318 ft 434 kts 110°
2026-05-07 22:27 31.54813 120.45849 14928 ft 431 kts 109°
2026-05-07 22:27 31.53819 120.49163 14535 ft 429 kts 109°
2026-05-07 22:27 31.52834 120.52451 14143 ft 426 kts 108°
2026-05-07 22:28 31.51869 120.55675 13731 ft 423 kts 108°
2026-05-07 22:28 31.50898 120.58921 13341 ft 420 kts 108°
2026-05-07 22:28 31.49933 120.62144 12962 ft 416 kts 108°
2026-05-07 22:28 31.48978 120.65329 12684 ft 406 kts 108°
2026-05-07 22:29 31.48059 120.68390 12449 ft 391 kts 108°
2026-05-07 22:29 31.47181 120.71312 12226 ft 377 kts 108°
2026-05-07 22:29 31.46330 120.74137 11956 ft 354 kts 108°
2026-05-07 22:29 31.45537 120.76772 11551 ft 335 kts 108°
2026-05-07 22:30 31.44772 120.79312 10919 ft 326 kts 108°
2026-05-07 22:30 31.44035 120.81759 10607 ft 315 kts 108°
2026-05-07 22:30 31.43305 120.84179 10378 ft 315 kts 108°
2026-05-07 22:30 31.42578 120.86591 10039 ft 313 kts 108°
2026-05-07 22:31 31.41851 120.88997 9580 ft 311 kts 108°
2026-05-07 22:31 31.41146 120.91326 9272 ft 306 kts 108°
2026-05-07 22:31 31.40435 120.93673 8991 ft 304 kts 108°
2026-05-07 22:31 31.39732 120.96002 8762 ft 301 kts 108°
2026-05-07 22:32 31.39035 120.98307 8585 ft 300 kts 108°
2026-05-07 22:32 31.38334 121.00606 8431 ft 298 kts 108°
2026-05-07 22:32 31.37637 121.02891 8255 ft 297 kts 108°
2026-05-07 22:32 31.36946 121.05161 8075 ft 295 kts 108°
2026-05-07 22:33 31.36257 121.07420 7909 ft 294 kts 107°
2026-05-07 22:33 31.35571 121.09668 7748 ft 293 kts 107°
2026-05-07 22:33 31.34889 121.11909 7548 ft 291 kts 107°
2026-05-07 22:33 31.34212 121.14112 7404 ft 290 kts 108°
2026-05-07 22:34 31.33521 121.16321 7235 ft 289 kts 108°
2026-05-07 22:34 31.32826 121.18524 7071 ft 288 kts 108°
2026-05-07 22:34 31.31829 121.20561 6893 ft 290 kts 129°
2026-05-07 22:34 31.30197 121.21919 6737 ft 291 kts 158°
2026-05-07 22:35 31.28216 121.22363 6555 ft 291 kts 176°
2026-05-07 22:35 31.26190 121.22473 6381 ft 291 kts 178°
2026-05-07 22:35 31.24189 121.22555 6212 ft 290 kts 178°
2026-05-07 22:35 31.22172 121.22648 6046 ft 290 kts 177°
2026-05-07 22:36 31.20150 121.22752 5840 ft 290 kts 177°
2026-05-07 22:36 31.18144 121.22856 5490 ft 280 kts 176°
2026-05-07 22:36 31.16262 121.22952 5206 ft 263 kts 176°
2026-05-07 22:36 31.14456 121.23047 4737 ft 257 kts 175°
2026-05-07 22:37 31.12686 121.23142 4233 ft 252 kts 175°
2026-05-07 22:37 31.10980 121.23231 3976 ft 238 kts 175°
2026-05-07 22:37 31.09363 121.23317 3672 ft 229 kts 174°
2026-05-07 22:37 31.07859 121.23585 3332 ft 213 kts 153°
2026-05-07 22:38 31.06779 121.24590 2979 ft 191 kts 116°
2026-05-07 22:38 31.06415 121.25984 2614 ft 176 kts 89°
2026-05-07 22:38 31.06374 121.27394 2233 ft 173 kts 85°
2026-05-07 22:38 31.06401 121.28807 1854 ft 175 kts 83°
2026-05-07 22:39 31.06444 121.30233 1556 ft 176 kts 83°
2026-05-07 22:39 31.06485 121.31607 1508 ft 163 kts 83°
2026-05-07 22:39 31.06523 121.32915 1545 ft 158 kts 83°
2026-05-07 22:39 31.06712 121.34045 1520 ft 132 kts 55°
2026-05-07 22:40 31.07437 121.34505 1544 ft 122 kts 360°
2026-05-07 22:40 31.08281 121.34370 1514 ft 123 kts 354°
2026-05-07 22:40 31.09132 121.34250 1516 ft 123 kts 357°
2026-05-07 22:40 31.09989 121.34177 1519 ft 123 kts 360°
2026-05-07 22:41 31.10838 121.34120 1514 ft 124 kts
2026-05-07 22:41 31.11704 121.34074 1375 ft 124 kts 360°
2026-05-07 22:41 31.12561 121.34024 1200 ft 123 kts 359°
2026-05-07 22:41 31.13416 121.33975 1033 ft 123 kts 359°
2026-05-07 22:42 31.14270 121.33929 855 ft 123 kts
2026-05-07 22:42 31.15123 121.33880 683 ft 123 kts
2026-05-07 22:42 31.15980 121.33832 505 ft 121 kts
2026-05-07 22:42 31.16829 121.33797 352 ft 123 kts
2026-05-07 22:43 31.17687 121.33738 160 ft 126 kts 360°
2026-05-07 22:43 31.18566 121.33692 32 ft 125 kts 359°
2026-05-07 22:43 31.19365 121.33652 26 ft 99 kts 357°
2026-05-07 22:43 31.19952 121.33623 28 ft 69 kts 358°
2026-05-07 22:44 31.20318 121.33601 28 ft 38 kts 357°
2026-05-07 22:44 31.20520 121.33579 28 ft 28 kts 347°
2026-05-07 22:44 31.20691 121.33487 27 ft 27 kts 328°
2026-05-07 22:44 31.20862 121.33383 29 ft 28 kts 347°
2026-05-07 22:45 31.21060 121.33371 28 ft 29 kts 357°
2026-05-07 22:45 31.21126 121.33368 28 ft 1 kts 358°
2026-05-07 22:45 31.21159 121.33350 30 ft 9 kts 313°
2026-05-07 22:45 31.21161 121.33262 28 ft 15 kts 266°
2026-05-07 22:46 31.21155 121.33099 24 ft 23 kts 268°
2026-05-07 22:46 31.21140 121.32987 30 ft 0 kts 233°
2026-05-07 22:46 31.21136 121.32986 29 ft 1 kts 208°
2026-05-07 22:46 31.21102 121.32985 29 ft 9 kts 180°
2026-05-07 22:47 31.21016 121.32989 27 ft 16 kts 177°
2026-05-07 22:47 31.20884 121.32997 28 ft 22 kts 177°
2026-05-07 22:47 31.20715 121.33007 28 ft 27 kts 177°
2026-05-07 22:47 31.20511 121.33017 28 ft 31 kts 178°
2026-05-07 22:48 31.20289 121.33026 30 ft 33 kts 178°
2026-05-07 22:48 31.20056 121.33042 30 ft 34 kts 177°
2026-05-07 22:48 31.19812 121.33056 29 ft 36 kts 177°
2026-05-07 22:48 31.19672 121.33049 28 ft 8 kts 218°
2026-05-07 22:49 31.19657 121.32990 29 ft 9 kts 268°
2026-05-07 22:49 31.19654 121.32907 29 ft 12 kts 268°
2026-05-07 22:49 31.19651 121.32801 25 ft 15 kts 268°
2026-05-07 22:49 31.19634 121.32684 31 ft 11 kts 225°
2026-05-07 22:50 31.19596 121.32604 30 ft 12 kts 265°
2026-05-07 22:50 31.19596 121.32585 30 ft 2 kts 268°
2026-05-07 22:50 31.19595 121.32555 30 ft 0 kts 267°
2026-05-07 22:50 31.19595 121.32552 29 ft 2 kts 267°
2026-05-07 22:51 31.19594 121.32530 29 ft 0 kts 267°
2026-05-07 22:51 31.19594 121.32529 29 ft 1 kts 267°